マクノート彗星

P/2010 J5 ( McNaught )

English version
Home page
Updated on December 15, 2011

---------------------------------------------------------------------

・ プロフィール

発見日 2010年5月12日
発見光度 19.1等
発見者 R. H. McNaught (Siding Spring)

・ 写真集

・ 軌道要素

Epoch 2009 Nov. 25.0 TT = JDT 2455160.5
T 2009 Nov. 6.59258 TT                                  MPC
q   3.7487204            (2000.0)            P               Q
n   0.11830996     Peri.  150.37681     -0.80487009     +0.58187788
a   4.1094956      Node    65.66626     -0.56654469     -0.69488899
e   0.0877906      Incl.    7.35404     -0.17666706     -0.42254871
P   8.33
From 106 observations 2005 Nov. 1-2011 Aug. 26, mean residual 0".5.

・ 光度変化

        m1 = 10.2 + 5 logΔ + 10.0 log r

---------------------------------------------------------------------

軌道要素はM.P.E.C. 2011-R11に掲載されたものです。
光度グラフはComet for Windowsで作成したものです。

---------------------------------------------------------------------

Copyright(C) Seiichi Yoshida (comet@aerith.net). All rights reserved.